Tracking 19854 objects as of 23-Sep-2019
HD Live streaming from Space Station
objects crossing your sky now

FENGYUN 1C DEB

Track FENGYUN 1C DEB now!
10-day predictions


NORAD ID: 32147
Int'l Code: 1999-025CSR
Perigee: 469.9 km
Apogee: 717.7 km
Inclination: 99.0 °
Period: 96.4 minutes
Semi major axis: 6964 km
RCS: 0.0121 m2 (small)
Launch date: May 10, 1999
Source: People's Republic of China (PRC)
Launch site: Taiyaun Space Center, China (TSC)

Note: This is SATELLITE DEBRIS
aabbcc
Your satellite tracking list
Your tracking list is empty




NASA's NSSDC Master Catalog

Two Line Element Set (TLE):
1 32147U 99025CSR 14154.15144796 +.00003671 +00000-0 +26086-3 0  9996
2 32147 099.0234 121.8141 0177903 201.7161 215.2078 14.93615755373384
Source of the keplerian elements: AFSPC